Theta_e
315 315 315 316 314 316 317 318 319 318 317 317 322 344 341 337 334 332 330 328 326 326 324 324 324 327 328 330 333 334 337 338 339 335 335 336 341 341 339 340 342 344 345 346
315 318 317 316 316 318 319 319 318 319 318 315 333 338 337 335 333 329 328 327 324 321 321 321 321 321 322 324 326 330 330 334 336 337 339 340 343 340 338 338 339 341 342 344
316 318 318 317 318 318 317 317 318 319 317 315 322 329 340 333 329 327 325 324 322 319 319 319 318 319 319 320 321 322 324 326 328 332 334 334 334 335 333 332 333 335 338 341
317 318 319 320 321 317 319 318 318 318 315 319 314 316 337 336 332 328 325 323 321 319 318 318 317 316 319 319 319 319 320 321 323 324 326 326 325 326 326 328 329 329 333 335
319 319 320 320 320 319 319 318 319 318 314 314 313 311 318 334 335 330 326 323 321 319 318 317 317 318 319 321 320 319 318 318 320 321 321 322 323 324 324 324 324 325 325 327
319 318 319 319 318 319 317 318 314 311 311 315 314 315 315 335 334 330 328 325 323 320 319 319 320 320 320 321 320 319 318 316 317 318 320 320 321 320 320 321 321 322 323 324
319 320 319 319 319 316 315 315 317 317 313 317 315 322 316 331 331 330 328 325 323 322 320 318 319 319 319 318 318 317 315 313 311 312 313 314 314 313 313 314 314 314 314 315
320 322 321 321 319 318 316 315 317 320 316 315 319 331 330 330 329 327 326 324 323 322 319 317 318 319 319 318 317 316 312 308 308 308 310 311 312 312 312 313 314 314 315 315
321 322 320 319 319 319 319 317 314 315 315 317 319 331 330 330 329 327 326 324 323 321 318 316 317 318 318 317 316 314 310 309 310 311 311 311 311 312 313 312 312 312 315 315
319 320 319 320 319 317 317 314 316 313 319 320 317 326 329 332 330 327 326 324 322 319 318 316 316 317 317 316 314 312 310 310 311 311 312 311 311 311 311 311 312 312 313 313
316 316 319 317 319 320 316 318 315 313 316 318 319 319 321 330 329 328 326 325 322 319 318 316 317 317 317 316 313 311 310 311 311 312 312 312 311 311 310 311 311 311 311 312
319 316 319 321 319 318 318 319 315 318 319 318 319 319 315 324 327 326 326 325 323 320 318 316 317 318 316 316 314 312 311 310 311 311 312 312 312 311 311 311 311 311 311 312
318 316 316 315 319 318 320 320 318 314 313 317 318 318 317 320 321 321 325 322 323 321 318 316 317 317 317 316 314 314 314 311 311 312 313 313 313 313 312 311 311 311 311 311
319 316 315 315 318 319 322 322 320 318 318 319 317 317 317 316 316 318 314 314 316 321 318 316 316 316 317 316 316 316 314 312 312 312 313 313 313 313 313 313 311 311 311 312
312 315 318 317 319 322 322 322 321 320 318 321 319 317 315 313 315 315 322 322 322 323 319 317 316 315 317 317 318 317 315 314 313 314 314 314 314 314 314 313 312 311 312 312
314 318 322 323 322 322 323 320 320 320 320 316 315 314 316 321 321 322 322 323 324 323 322 319 317 317 318 318 318 317 318 319 317 316 315 315 315 313 314 314 312 312 311 309
317 318 319 323 322 321 321 318 319 319 318 312 312 313 319 322 322 321 321 321 323 323 322 321 319 318 318 319 319 319 319 318 317 316 314 312 312 311 312 312 312 310 309 309
317 317 316 320 319 325 318 318 320 321 320 317 318 320 320 320 320 319 318 320 321 321 322 320 320 320 320 320 319 318 317 315 311 311 311 310 310 310 310 309 309 310 309 309
314 315 317 319 319 318 320 320 321 319 322 318 318 318 319 319 318 319 318 316 316 317 316 315 317 315 314 314 314 313 312 311 311 310 308 307 306 306 305 305 307 309 309 309
315 313 316 315 319 322 318 320 317 316 321 318 315 315 316 315 314 313 317 315 313 314 314 313 313 313 312 311 312 311 310 309 309 307 306 305 305 305 305 306 306 307 307 307
316 315 316 313 315 317 316 320 317 319 317 317 314 314 312 313 311 312 313 312 312 311 311 311 311 311 311 311 310 309 307 306 305 305 305 305 305 304 305 305 306 306 306 306
317 316 315 313 314 320 316 319 318 314 315 311 310 310 311 313 313 313 312 311 312 313 313 313 312 311 309 310 309 305 305 305 305 305 304 304 303 303 305 305 305 305 305 304
319 315 317 316 316 313 316 315 315 313 312 311 310 311 313 314 314 312 312 310 311 310 310 310 308 306 305 305 305 304 304 304 304 304 303 303 301 301 304 303 305 304 304 303
314 315 317 316 314 315 313 311 311 309 309 308 310 311 312 313 312 312 309 309 309 309 309 306 306 305 304 304 303 303 304 305 304 303 303 301 301 301 301 303 303 303 303 302
312 313 314 314 314 312 312 311 309 309 309 310 311 311 311 311 311 309 308 308 308 307 306 305 304 304 303 303 304 304 305 304 304 302 301 301 300 301 301 302 303 302 302 302
311 312 313 313 312 311 310 309 309 309 311 311 312 311 311 310 308 307 306 306 305 304 304 304 305 305 305 305 304 304 304 304 303 302 301 300 300 301 301 302 302 301 301 302
Wind_Speed
4 5 2 6 7 3 3 2 3 5 7 7 8 10 7 6 10 11 9 8 8 10 13 18 21 22 20 19 19 22 20 19 15 12 13 11 14 11 11 13 15 15 16 13
6 2 7 3 4 5 5 4 4 3 6 8 9 9 8 7 4 6 8 6 6 5 8 13 16 18 18 19 23 24 25 25 23 18 11 7 8 8 12 14 14 13 13 11
6 5 1 4 3 8 4 6 2 2 4 6 7 4 5 5 7 7 7 4 3 5 5 4 3 10 13 20 23 23 23 23 23 21 20 15 13 16 16 20 18 15 8 9
3 2 2 4 4 4 3 3 4 3 4 2 4 3 3 4 4 4 6 5 5 6 5 5 5 6 13 19 21 22 23 24 24 22 22 22 21 18 17 17 18 17 14 10
4 1 3 3 2 4 4 3 2 2 4 4 2 4 1 5 6 5 5 7 7 7 7 7 11 11 13 17 19 20 21 21 20 20 19 18 17 16 16 15 17 17 18 16
2 4 3 5 3 2 3 3 6 4 3 2 4 5 4 7 7 5 5 7 9 9 8 10 9 10 10 9 12 14 16 18 18 18 17 17 17 17 17 18 19 18 17 18
5 4 5 4 4 6 7 6 4 5 4 5 2 2 6 2 10 10 12 9 7 6 6 5 6 8 10 10 9 10 12 15 14 15 15 15 16 17 18 19 20 21 21 21
3 3 3 1 2 5 4 6 5 3 3 5 3 3 5 4 4 3 5 5 6 7 6 6 7 9 8 7 6 7 10 13 13 15 18 17 17 17 17 17 17 19 20 21
4 1 4 6 2 4 3 1 3 5 2 2 2 1 3 2 2 3 5 6 9 9 8 8 11 11 10 8 5 4 6 9 11 12 14 16 15 16 16 16 16 17 17 19
5 3 3 4 5 6 3 5 3 3 2 4 4 3 4 7 10 7 8 10 10 7 8 8 15 14 9 7 5 6 4 5 7 8 10 11 12 13 14 15 16 16 17 18
4 4 4 2 1 2 4 1 5 4 4 5 2 5 5 14 14 14 14 14 11 10 10 8 11 11 9 8 7 7 6 5 3 2 4 6 8 10 11 13 15 16 16 17
2 5 2 3 5 5 4 3 4 5 4 2 3 6 4 7 11 12 14 13 11 7 5 5 11 14 13 14 11 11 9 9 5 3 2 4 5 6 7 9 11 11 13 13
5 2 3 6 6 6 5 3 4 3 2 5 5 5 2 4 5 10 9 6 8 5 6 6 11 15 18 18 15 13 11 12 9 7 5 5 7 8 8 8 8 9 10 11
8 3 6 6 4 2 2 4 2 3 2 3 5 6 8 6 6 2 4 6 6 7 8 7 7 16 21 20 19 15 15 15 12 10 8 11 11 11 12 11 9 9 11 10
5 4 4 4 4 2 3 5 5 6 6 5 6 5 4 5 4 4 4 6 7 4 5 6 6 10 20 21 20 17 12 12 14 14 14 14 16 19 18 15 10 8 8 5
2 2 2 1 3 0 4 8 10 12 7 6 6 2 2 4 4 8 6 6 6 5 5 2 6 13 20 23 19 12 10 13 13 16 20 22 18 11 9 6 6 4 2 8
4 6 3 3 1 4 6 5 6 1 4 4 5 5 2 3 6 4 5 5 5 3 2 2 1 4 9 12 14 10 11 10 13 10 1 4 4 8 10 7 3 5 8 9
5 5 3 3 3 3 6 2 6 9 4 5 7 5 3 3 2 3 1 4 2 1 1 2 4 5 6 8 10 11 8 1 8 9 10 9 7 8 8 11 11 8 7 9
5 5 3 4 4 5 3 5 6 4 2 2 6 6 5 4 3 3 2 1 3 1 2 4 3 6 8 9 6 8 7 4 6 8 5 7 8 10 11 12 14 13 12 11
6 4 5 4 4 6 6 4 2 4 1 7 6 6 7 5 0 4 4 2 3 5 7 8 8 8 8 8 5 5 6 6 4 5 6 8 11 11 11 11 12 11 11 11
3 2 6 3 3 6 6 5 1 4 6 6 7 6 7 5 4 2 6 5 8 10 12 10 8 7 6 5 4 5 7 10 5 6 9 11 12 13 12 14 11 11 10 8
6 6 4 3 3 6 6 2 7 6 2 6 5 5 4 3 5 5 6 6 6 4 2 3 5 7 7 6 5 8 8 6 7 9 10 11 13 15 14 12 12 10 9 10
1 6 5 7 6 4 2 4 3 5 7 4 6 4 7 6 5 7 5 5 4 2 4 4 9 10 8 7 6 4 4 6 7 9 11 13 14 14 12 13 11 9 11 14
2 2 3 4 3 4 5 4 5 6 6 6 6 6 6 6 6 5 5 4 2 2 3 8 7 4 2 4 4 3 3 4 7 8 9 13 15 15 14 11 11 9 11 13
4 2 3 1 3 4 3 3 5 5 6 6 5 5 7 7 5 5 4 3 2 3 6 6 3 3 3 2 2 1 2 4 5 7 11 12 13 15 13 11 8 7 8 11
4 5 4 5 8 5 5 6 5 8 7 9 8 5 5 8 7 7 5 8 12 10 6 4 3 4 6 4 4 3 4 4 6 9 11 11 12 13 12 10 9 9 9 7
Wind_Direction
354 59 208 222 205 164 149 118 80 331 342 75 99 99 87 77 71 81 78 66 41 26 1 20 31 40 46 46 42 39 34 28 19 353 345 323 355 356 349 345 346 338 322 297
15 251 234 234 93 106 82 99 345 310 0 91 106 80 56 37 31 80 105 93 71 18 357 1 28 39 40 43 44 44 39 37 37 31 21 17 4 7 26 21 14 2 347 334
174 241 156 138 109 91 29 111 81 121 344 56 112 104 112 47 64 67 74 89 116 175 194 272 19 65 55 56 53 49 48 45 43 40 47 53 50 45 36 34 36 36 13 353
207 302 127 104 94 129 108 188 132 90 59 216 45 250 140 153 140 142 138 145 185 193 199 208 199 110 89 76 70 62 55 50 48 47 49 53 56 49 39 38 42 37 32 11
264 101 108 94 137 126 189 151 77 123 120 103 343 103 208 153 199 190 182 173 186 191 183 185 182 135 98 78 71 68 62 55 51 53 57 62 61 56 50 45 45 43 45 47
290 345 127 157 59 40 109 79 55 62 101 63 237 140 239 192 189 155 204 201 185 179 176 168 138 104 96 85 81 76 68 65 60 57 58 58 58 55 50 40 39 36 37 31
6 348 328 94 78 21 68 55 351 352 7 220 244 67 246 179 165 171 191 199 202 192 182 170 139 123 110 100 75 58 55 64 67 69 66 60 55 48 45 42 36 29 29 27
144 322 358 70 126 149 70 131 149 242 239 270 291 233 279 193 188 174 176 180 189 203 203 199 177 158 141 128 98 65 66 70 66 70 68 67 64 58 50 44 41 38 33 32
139 229 330 36 89 103 163 68 171 104 7 12 238 357 346 104 214 173 202 197 215 212 202 198 191 187 168 148 116 89 97 95 88 72 67 60 53 48 48 46 42 38 35 33
188 113 348 329 40 29 87 155 71 9 224 263 295 256 226 202 213 206 216 221 230 216 205 204 199 186 168 151 150 158 142 122 95 78 66 55 51 47 42 36 36 34 30 25
109 98 275 3 78 151 356 21 51 118 145 186 271 267 214 205 198 204 216 224 226 220 210 201 198 182 175 181 184 184 179 166 143 70 48 47 51 54 49 41 38 36 34 30
46 121 133 244 297 294 192 131 127 128 233 223 154 275 293 220 202 195 218 225 231 229 206 198 195 186 186 198 203 207 193 195 217 260 311 342 354 18 27 29 27 25 22 21
178 36 44 352 354 1 61 40 107 120 79 202 143 262 328 181 199 217 232 257 250 215 154 168 198 195 198 202 212 213 216 212 226 235 269 301 318 320 330 344 356 358 354 349
89 112 155 193 189 178 307 329 4 121 118 231 228 274 299 323 270 198 209 257 242 183 179 184 196 201 203 208 217 219 221 220 229 242 266 290 299 306 304 304 312 322 332 334
105 142 164 169 193 202 225 270 271 197 213 193 256 225 298 311 2 67 70 75 61 41 203 200 207 204 207 214 222 228 238 244 252 259 271 282 296 305 302 297 285 311 325 348
3 165 109 168 214 146 281 278 272 263 232 233 222 176 307 335 93 71 71 76 65 32 20 168 193 203 213 219 221 232 259 273 270 278 283 287 306 320 328 331 296 312 352 344
117 132 101 238 296 22 316 229 250 319 38 169 164 197 145 73 79 96 99 101 116 117 80 23 341 243 237 225 224 260 300 303 299 283 278 89 32 37 16 30 35 352 337 344
134 111 108 182 61 219 241 307 114 106 30 55 86 117 158 132 62 46 5 127 119 162 217 217 209 223 241 240 272 289 302 8 88 79 84 68 38 5 7 343 339 342 335 333
158 129 125 150 192 291 288 153 166 153 224 264 133 143 149 145 65 349 319 273 165 192 68 48 72 82 78 75 86 104 90 63 25 54 26 44 20 2 354 341 331 323 323 330
86 62 128 146 166 216 229 263 127 122 231 202 168 176 180 148 102 253 193 91 57 108 121 116 109 101 83 66 74 71 71 55 36 32 9 6 2 352 343 333 326 318 322 319
106 62 170 144 199 281 226 231 7 167 236 168 174 172 161 175 198 185 121 114 138 133 134 128 121 101 75 37 8 69 86 77 37 4 2 357 356 357 352 346 335 336 333 333
159 152 177 104 108 269 188 125 168 200 154 145 146 154 140 143 136 140 137 153 159 152 98 22 18 26 30 27 55 63 46 16 351 355 358 6 6 1 357 354 352 2 16 14
244 177 178 170 210 233 235 182 116 143 141 155 144 161 150 140 162 167 175 157 167 56 32 57 100 98 77 63 46 34 8 355 358 356 5 359 353 351 353 357 1 11 1 2
315 146 127 101 244 207 174 116 140 139 147 154 159 153 162 158 169 151 139 158 145 53 86 133 130 119 74 24 12 1 3 350 344 353 353 347 348 347 346 345 349 346 348 349
207 79 131 60 31 59 26 101 138 119 116 117 125 149 168 156 162 151 138 138 130 93 95 106 68 11 353 339 0 311 283 324 333 344 344 348 350 347 344 338 336 0 358 349
183 178 160 218 202 156 194 191 169 141 160 166 143 134 153 169 150 139 128 143 132 122 118 93 51 18 352 354 43 17 317 306 320 335 345 349 353 357 356 356 357 347 343 345